Regional Weather Roundup
Issued by NWS

Home | Current Version | Previous Version | Graphics & Text | Print | Product List | Glossary On
Versions: 1 2 3 4 5 6 7 8 9 10 11 12 13 14 15 16 17 18 19 20 21 22 23 24 25 26 27 28 29 30 31 32 33 34 35 36 37 38 39 40 41 42 43 44 45 46 47 48 49 50
000
ASUS45 KBOI 210210
RWRID
WEATHER ROUNDUP FOR IDAHO
NATIONAL WEATHER SERVICE BOISE ID
800 PM MDT WED AUG 20 2014

NOTE: "FAIR" INDICATES FEW OR NO CLOUDS BELOW 12000 FEET
WITH NO SIGNIFICANT WEATHER AND/OR OBSTRUCTIONS TO VISIBILITY

IDZ012-014-210300-
SOUTHWEST IDAHO


CITY           SKY/WX    TMP DP  RH WIND       PRES   REMARKS
BOISE          MOCLDY    82  45  27 NW3       29.78F
CALDWELL       MOCLDY    81  50  34 CALM      29.78S
MOUNTAIN HOME  MOCLDY    83  45  25 N10       29.79S
$$

IDZ016-017-210300-
SOUTHCENTRAL IDAHO


CITY           SKY/WX    TMP DP  RH WIND       PRES   REMARKS
BURLEY         CLOUDY    68  53  58 CALM      29.87F
JEROME         MOCLDY    74  54  49 S7        29.87F
TWIN FALLS     MOCLDY    74  53  48 S7        29.88R
$$

IDZ019>023-210300-
SOUTHEAST IDAHO


CITY           SKY/WX    TMP DP  RH WIND       PRES   REMARKS
IDAHO FALLS    CLOUDY    63  55  75 E13       30.00R
POCATELLO      PTCLDY    65  52  62 S15G26    29.93F
REXBURG        CLOUDY    59  52  77 SE5       30.00S
$$

IDZ006-010-011-018-031-032-210300-
CENTRAL IDAHO MOUNTAINS


CITY           SKY/WX    TMP DP  RH WIND       PRES   REMARKS
MCCALL         MOCLDY    62  47  57 S5        29.92R
HAILEY         MOCLDY    72  45  37 S8        29.95R
STANLEY          N/A     62  44  51 SE7       30.02S
SALMON         MOCLDY    63  55  77 N6        29.94R
CHALLIS        CLOUDY    62  52  69 N6        29.97R
$$

IDZ002-004-006-007-026-210300-
NORTHERN IDAHO


CITY           SKY/WX    TMP DP  RH WIND       PRES   REMARKS
LEWISTON       CLEAR     80  41  24 NW12G24   29.79R
LOWELL           N/A     72  61  68 CALM      29.77R
COEUR D`ALENE  CLOUDY    72  52  49 CALM      29.83R
MULLAN PASS    CLEAR     55  46  71 NW5       30.01R
$$


USA.gov is the U.S. government's official web portal to all federal, state and local government web resources and services.